Regional Weather Roundup
Issued by NWS Charleston, WV

Home | Current Version | Previous Version | Text Only | Print | Product List | Glossary Off
Versions: 1 2 3 4 5 6 7 8 9 10 11 12 13 14 15 16 17 18 19 20 21 22 23 24 25 26 27

000
ASUS41 KRLX 231110
RWRRLX
West Virginia Regional Weather Roundup
National Weather Service Charleston WV
700 AM EDT THU OCT 23 2014

Note: "fair" indicates few or no clouds below 12,000 feet with no
significant weather and/or obstructions to visibility.

WVZ003-231200-
Northern Panhandle of West Virginia

CITY           SKY/WX    TMP DP  RH WIND       PRES   REMARKS
WHEELING       CLOUDY    44  42  93 W6        30.17R
$$

WVZ009-231200-
Northwest West Virginia

CITY           SKY/WX    TMP DP  RH WIND       PRES   REMARKS
PARKERSBURG    CLOUDY    45  41  86 NW5       30.21F
$$

WVZ006-231200-
Western West Virginia

CITY           SKY/WX    TMP DP  RH WIND       PRES   REMARKS
HUNTINGTON     CLOUDY    47  41  80 N6        30.21S
$$

WVZ015-231200-
West Central West Virginia

CITY           SKY/WX    TMP DP  RH WIND       PRES   REMARKS
CHARLESTON     CLOUDY    47  41  80 NW3       30.19F
$$

WVZ022-031-231200-
North Central West Virginia

CITY           SKY/WX    TMP DP  RH WIND       PRES   REMARKS
CLARKSBURG     CLOUDY    46  42  86 W7        30.16R
MORGANTOWN     CLOUDY    48  40  73 N8        30.15R
$$

WVZ025-035-042-045-231200-
Southern West Virginia

CITY           SKY/WX    TMP DP  RH WIND       PRES   REMARKS
BECKLEY        CLOUDY    42  38  85 NW10      30.15S
LOGAN          CLOUDY    45  41  87 CALM      30.19S
BLUEFIELD      CLOUDY    42  38  85 NW8       30.16R
LEWISBURG      CLOUDY    46  37  72 CALM      30.12R
$$

WVZ047-231200-
Northern Mountains of West Virginia

CITY           SKY/WX    TMP DP  RH WIND       PRES   REMARKS
ELKINS         CLOUDY    44  41  89 NW10      30.14R
$$

WVZ052-231200-
Eastern Panhandle of West Virginia

CITY           SKY/WX    TMP DP  RH WIND       PRES   REMARKS
MARTINSBURG    MOCLDY    51  39  63 NW16G24   29.96S
PETERSBURG     CLOUDY    50  39  64 NW6       30.07S
$$



USA.gov is the U.S. government's official web portal to all federal, state and local government web resources and services.